This is the latest recevied weather packets stored in our database for station/object KC9GSD. If no packets are shown the sender has not sent any weather packets the latest 10 day(s).
| Time | Temp. | Humidity | Pressure | Rain* | Wind** | Luminosity | Snow |
|---|---|---|---|---|---|---|---|
| 1777817637 | 13.89° C | 65% | 1021.6 hPa | 0 mm | - | 458 W/m² | - |
| 1777817333 | 13.33° C | 66% | 1021.6 hPa | 0 mm | - | 441 W/m² | - |
| 1777817031 | 13.33° C | 70% | 1021.5 hPa | 0 mm | - | 424 W/m² | - |
| 1777816726 | 13.33° C | 63% | 1021.6 hPa | 0 mm | - | 406 W/m² | - |
| 1777816424 | 13.33° C | 66% | 1021.4 hPa | 0 mm | - | 390 W/m² | - |
| 1777816122 | 12.78° C | 69% | 1021.3 hPa | 0 mm | - | 373 W/m² | - |
| 1777815819 | 12.22° C | 67% | 1021.2 hPa | 0 mm | - | 357 W/m² | - |
| 1777815516 | 12.22° C | 67% | 1021.5 hPa | 0 mm | - | 323 W/m² | - |
| 1777815214 | 12.22° C | 71% | 1021.4 hPa | 0 mm | - | 277 W/m² | - |
| 1777814910 | 12.22° C | 68% | 1021.4 hPa | 0 mm | - | 234 W/m² | - |
| 1777814606 | 11.67° C | 69% | 1021.3 hPa | 0 mm | - | 202 W/m² | - |
| 1777814304 | 11.11° C | 76% | 1021.3 hPa | 0 mm | - | 124 W/m² | - |
| 1777814000 | 10.56° C | 77% | 1021.3 hPa | 0 mm | - | 67 W/m² | - |
| 1777813698 | 10.56° C | 76% | 1021.3 hPa | 0 mm | - | 75 W/m² | - |
| 1777813395 | 10.56° C | 75% | 1021.2 hPa | 0 mm | - | 89 W/m² | - |
| 1777813092 | 10° C | 78% | 1021.2 hPa | 0 mm | - | 51 W/m² | - |
| 1777812790 | 9.44° C | 79% | 1021.1 hPa | 0 mm | - | 41 W/m² | - |
| 1777812486 | 9.44° C | 81% | 1021.1 hPa | 0 mm | - | 42 W/m² | - |
| 1777812184 | 8.89° C | 82% | 1021.2 hPa | 0 mm | - | 46 W/m² | - |
| 1777811882 | 8.89° C | 84% | 1020.9 hPa | 0 mm | - | 46 W/m² | - |
| 1777811581 | 8.33° C | 87% | 1020.9 hPa | 0 mm | - | 43 W/m² | - |
| 1777811275 | 7.78° C | 95% | 1020.8 hPa | 0 mm | - | 35 W/m² | - |
| 1777810973 | 7.22° C | 97% | 1020.8 hPa | 0 mm | - | 34 W/m² | - |
| 1777810670 | 7.22° C | 97% | 1020.7 hPa | 0 mm | - | 35 W/m² | - |
| 1777810367 | 6.67° C | 97% | 1020.9 hPa | 0 mm | - | 30 W/m² | - |
* Rain latest hour (hover to see other rain measurements)
** Current wind speed in m/s (hover to see current wind gust speed)